Weather History for Marathon, FL

Change the Weather History Date:

Wednesday, October 26, 2011

  Actual Average Record
Temperature  
Mean Temperature 80 °F 79 °F  
Max Temperature 83 °F 84 °F 91 °F (1997)
Min Temperature 76 °F 74 °F 71 °F (2006)
Degree Days  
Heating Degree Days 0 0  
Month to date heating degree days 0 0  
Since 1 July heating degree days 0 0  
Cooling Degree Days 15 14  
Month to date cooling degree days 361 419  
Year to date cooling degree days 4701 4373  
Growing Degree Days 28 (Base 50)    
Moisture  
Dew Point 71 °F    
Average Humidity 76    
Maximum Humidity 87    
Minimum Humidity 65    
Precipitation  
Precipitation T in 0.14 in 0.62 in (2007)
Month to date precipitation 17.83 4.09  
Year to date precipitation 33.00 40.64  
Snow  
Snow 0.00 in - - ()
Month to date snowfall 0.0  
Since 1 July snowfall 0.0  
Since 1 September snowfall 0.0  
Snow Depth 0.00 in    
Sea Level Pressure  
Sea Level Pressure 29.97 in    
Wind  
Wind Speed 10 mph (NE)    
Max Wind Speed 17 mph    
Max Gust Speed 23 mph    
Visibility 10 miles    
Events      
T = Trace of Precipitation, MM = Missing Value Source: NWS Daily Summary

Daily Weather History Graph

Daily Weather History Graph

Search for Another Location

Airport:

Trip Planner

Search our weather history database for the weather conditions in past years. The results will help you decide how hot, cold, wet, or windy it might be!

Date:

Astronomy

Oct. 26, 2011 Rise Set
Actual Time 7:27 AM EDT 6:48 PM EDT
Civil Twilight 7:04 AM EDT 7:11 PM EDT
Nautical Twilight 6:37 AM EDT 7:38 PM EDT
Astronomical Twilight 6:10 AM EDT 8:05 PM EDT
Moon 7:08 AM EDT (10/26) 6:37 PM EDT (10/26)
Length of Visible Light 12h 07m
Length of Day
11h 20m
Waning Crescent, 0% of the Moon is Illuminated
Oct 26
Waning Crescent
Oct 26
New
Nov 2
First Quarter
Nov 10
Full
Nov 18
Last Quarter

Hourly Weather History & Observations

Time (EDT) Temp. Heat Index Dew Point Humidity Pressure Visibility Wind Dir Wind Speed Gust Speed Precip Events Conditions
12:53 AM 75.9 °F - 71.1 °F 85% 30.02 in 10.0 mi NE 8.1 mph - N/A   Mostly Cloudy
1:53 AM 75.9 °F - 71.1 °F 85% 30.00 in 10.0 mi NE 9.2 mph - 0.00 in   Overcast
2:53 AM 75.9 °F - 72.0 °F 87% 29.98 in 10.0 mi NE 9.2 mph - N/A   Scattered Clouds
3:53 AM 75.9 °F - 72.0 °F 87% 29.97 in 10.0 mi NE 6.9 mph - N/A   Partly Cloudy
4:53 AM 78.1 °F - 70.0 °F 76% 29.96 in 10.0 mi ENE 8.1 mph - N/A   Clear
5:53 AM 77.0 °F - 70.0 °F 79% 29.96 in 10.0 mi ENE 9.2 mph - N/A   Partly Cloudy
7:53 AM 77.0 °F - 72.0 °F 84% 29.99 in 10.0 mi NE 6.9 mph - N/A   Mostly Cloudy
8:41 AM 77.0 °F - 71.6 °F 83% 29.99 in 10.0 mi NE 10.4 mph - N/A   Mostly Cloudy
8:53 AM 77.0 °F - 72.0 °F 84% 29.99 in 10.0 mi NE 10.4 mph - N/A   Overcast
9:02 AM 77.0 °F - 71.6 °F 83% 30.00 in 10.0 mi NE 9.2 mph - N/A   Overcast
9:53 AM 77.0 °F - 72.0 °F 84% 30.01 in 10.0 mi NE 10.4 mph - N/A   Overcast
11:39 AM 78.8 °F - 71.6 °F 78% 30.01 in 10.0 mi ENE 10.4 mph - N/A   Overcast
11:53 AM 78.1 °F - 71.1 °F 79% 30.01 in 10.0 mi NE 11.5 mph - N/A   Overcast
12:53 PM 79.0 °F - 72.0 °F 79% 29.99 in 10.0 mi ENE 11.5 mph - 0.00 in   Overcast
1:53 PM 82.9 °F 87.0 °F 70.0 °F 65% 29.96 in 10.0 mi NE 15.0 mph - N/A   Partly Cloudy
2:53 PM 82.0 °F 85.9 °F 70.0 °F 67% 29.94 in 10.0 mi ENE 13.8 mph - N/A   Mostly Cloudy
3:53 PM 81.0 °F 84.4 °F 70.0 °F 69% 29.93 in 10.0 mi ENE 16.1 mph 20.7 mph N/A   Scattered Clouds
4:53 PM 81.0 °F 84.4 °F 70.0 °F 69% 29.92 in 10.0 mi ENE 15.0 mph 20.7 mph N/A   Clear
5:53 PM 80.1 °F 83.2 °F 70.0 °F 71% 29.92 in 10.0 mi ENE 10.4 mph 18.4 mph N/A   Clear
6:53 PM 79.0 °F - 71.1 °F 77% 29.92 in 10.0 mi ENE 11.5 mph - N/A   Clear
8:53 PM 78.1 °F - 72.0 °F 81% 29.95 in 10.0 mi NE 9.2 mph - N/A   Partly Cloudy
9:53 PM 78.1 °F - 72.0 °F 81% 29.96 in 10.0 mi ENE 8.1 mph - N/A   Partly Cloudy
10:53 PM 78.1 °F - 73.0 °F 84% 29.96 in 10.0 mi ENE 6.9 mph - N/A   Overcast
11:53 PM 78.1 °F - 73.0 °F 84% 29.95 in 10.0 mi ENE 6.9 mph - N/A   Overcast